Terug naar catalogus

STARLINK-5166

ActiefCommunicatieVLEO
NORAD 54085·PAYLOAD·🇺🇸 United States

Gelanceerd Oct 20, 2022 vanaf Cape Canaveral Space Force Station

Loading…

Volgende Passages (komende 24 uur)

TLE

VersSource: CelesTrak SupGP

Epoch: Sep 14, 2026, 21:39 UTC

1 54085C 22136AL  26257.90256944  .00541300  00000+0  20129-1 0  2571
2 54085  53.1610 203.2933 0001265  94.8545 138.1859 15.26713365    16

Volg STARLINK-5166 in realtime met AllMySat

Download on the App Store